Time,TemperatureF,DewpointF,PressureIn,WindDirection,WindDirectionDegrees,WindSpeedMPH,WindSpeedGustMPH,Humidity,HourlyPrecipIn,Conditions,Clouds,dailyrainin,SoftwareType,DateUTC
2013-03-26 00:00:00,32.5,24.8,29.68,NNW,337,0.0,0.0,73,0.00,,,0.02,WUHU21623XXSP,2013-03-26 04:00:00,
2013-03-26 00:05:00,32.5,25.1,29.68,NNW,337,0.0,0.0,74,0.00,,,0.00,WUHU21623XXSP,2013-03-26 04:05:00,
2013-03-26 00:10:00,32.9,25.8,29.68,NNW,337,0.0,0.0,75,0.00,,,0.00,WUHU21623XXSP,2013-03-26 04:10:00,
2013-03-26 00:15:00,32.7,25.3,29.68,NNW,337,0.0,0.0,74,0.00,,,0.00,WUHU21623XXSP,2013-03-26 04:15:00,
2013-03-26 00:20:00,32.5,25.1,29.68,NNW,337,0.0,0.0,74,0.00,,,0.00,WUHU21623XXSP,2013-03-26 04:20:00,
2013-03-26 00:25:00,32.4,25.8,29.68,NNW,337,0.0,0.0,76,0.00,,,0.00,WUHU21623XXSP,2013-03-26 04:25:00,
2013-03-26 00:30:00,32.4,25.6,29.68,NNW,337,0.0,0.0,76,0.00,,,0.00,WUHU21623XXSP,2013-03-26 04:30:00,
2013-03-26 00:35:00,32.4,25.6,29.68,NNW,337,0.0,0.0,76,0.00,,,0.00,WUHU21623XXSP,2013-03-26 04:35:00,
2013-03-26 00:40:00,32.5,26.1,29.68,NNW,337,0.0,0.0,77,0.00,,,0.00,WUHU21623XXSP,2013-03-26 04:40:00,
2013-03-26 00:45:00,32.7,26.0,29.68,NNW,337,0.0,0.0,76,0.00,,,0.00,WUHU21623XXSP,2013-03-26 04:45:00,
2013-03-26 00:50:00,32.5,25.5,29.68,NW,315,0.0,0.0,75,0.00,,,0.00,WUHU21623XXSP,2013-03-26 04:50:00,
2013-03-26 00:55:00,32.4,25.8,29.68,NW,315,0.0,0.0,76,0.00,,,0.00,WUHU21623XXSP,2013-03-26 04:55:00,
2013-03-26 01:00:00,32.4,25.6,29.69,NW,315,0.0,0.0,76,0.00,,,0.00,WUHU21623XXSP,2013-03-26 05:00:00,
2013-03-26 01:05:00,32.4,25.6,29.68,NW,315,0.0,0.0,76,0.00,,,0.00,WUHU21623XXSP,2013-03-26 05:05:00,
2013-03-26 01:10:00,32.4,25.6,29.69,NW,315,0.0,0.0,76,0.00,,,0.00,WUHU21623XXSP,2013-03-26 05:10:00,
2013-03-26 01:15:00,32.4,25.3,29.69,NW,315,0.0,0.0,75,0.00,,,0.00,WUHU21623XXSP,2013-03-26 05:15:00,
2013-03-26 01:20:00,32.4,25.3,29.69,NW,315,0.0,0.0,75,0.00,,,0.00,WUHU21623XXSP,2013-03-26 05:20:00,
2013-03-26 01:25:00,32.4,25.0,29.69,NW,315,0.0,0.0,74,0.00,,,0.00,WUHU21623XXSP,2013-03-26 05:25:00,
2013-03-26 01:30:00,32.5,25.1,29.69,NW,315,0.0,0.0,74,0.00,,,0.00,WUHU21623XXSP,2013-03-26 05:30:00,
2013-03-26 01:35:00,32.7,26.0,29.69,NW,315,0.0,0.0,76,0.00,,,0.00,WUHU21623XXSP,2013-03-26 05:35:00,
2013-03-26 01:40:00,32.7,25.3,29.69,NW,315,0.0,0.0,74,0.00,,,0.00,WUHU21623XXSP,2013-03-26 05:40:00,
2013-03-26 01:45:00,32.7,25.0,29.69,NW,315,0.0,0.0,73,0.00,,,0.00,WUHU21623XXSP,2013-03-26 05:45:00,
2013-03-26 01:50:00,32.7,25.3,29.69,WNW,292,0.0,6.0,74,0.00,,,0.00,WUHU21623XXSP,2013-03-26 05:50:00,
2013-03-26 01:55:00,32.7,25.3,29.69,WNW,292,1.8,6.0,74,0.00,,,0.00,WUHU21623XXSP,2013-03-26 05:55:00,
2013-03-26 02:00:00,32.7,25.3,29.69,WNW,292,0.0,4.0,74,0.00,,,0.00,WUHU21623XXSP,2013-03-26 06:00:00,
2013-03-26 02:05:00,32.5,25.1,29.69,WNW,292,0.0,4.0,74,0.00,,,0.00,WUHU21623XXSP,2013-03-26 06:05:00,
2013-03-26 02:10:00,32.5,25.5,29.69,WNW,292,0.0,3.8,75,0.00,,,0.00,WUHU21623XXSP,2013-03-26 06:10:00,
2013-03-26 02:15:00,32.2,25.5,29.69,WNW,292,2.0,3.8,76,0.00,,,0.00,WUHU21623XXSP,2013-03-26 06:15:00,
2013-03-26 02:20:00,32.2,26.1,29.69,WNW,292,0.0,2.5,78,0.00,,,0.00,WUHU21623XXSP,2013-03-26 06:20:00,
2013-03-26 02:25:00,32.2,26.1,29.69,WNW,292,3.8,3.8,78,0.00,,,0.00,WUHU21623XXSP,2013-03-26 06:25:00,
2013-03-26 02:30:00,31.6,25.9,29.69,WNW,292,0.0,3.8,79,0.00,,,0.00,WUHU21623XXSP,2013-03-26 06:30:00,
2013-03-26 02:35:00,31.3,26.2,29.69,WNW,292,0.0,2.7,80,0.00,,,0.00,WUHU21623XXSP,2013-03-26 06:35:00,
2013-03-26 02:40:00,31.3,26.2,29.70,WNW,292,0.0,0.0,81,0.00,,,0.00,WUHU21623XXSP,2013-03-26 06:40:00,
2013-03-26 02:45:00,30.9,26.1,29.69,WNW,292,0.0,0.0,82,0.00,,,0.00,WUHU21623XXSP,2013-03-26 06:45:00,
2013-03-26 02:50:00,30.9,26.4,29.69,WNW,292,0.0,0.0,83,0.00,,,0.00,WUHU21623XXSP,2013-03-26 06:50:00,
2013-03-26 02:55:00,30.7,26.2,29.69,WNW,292,0.0,0.0,83,0.00,,,0.00,WUHU21623XXSP,2013-03-26 06:55:00,
2013-03-26 03:00:00,30.7,26.5,29.69,WNW,292,0.0,0.0,84,0.00,,,0.00,WUHU21623XXSP,2013-03-26 07:00:00,
2013-03-26 03:05:00,30.7,26.5,29.69,WNW,292,0.0,0.0,84,0.00,,,0.00,WUHU21623XXSP,2013-03-26 07:05:00,
2013-03-26 03:10:00,30.6,26.6,29.69,WNW,292,0.0,0.0,85,0.00,,,0.00,WUHU21623XXSP,2013-03-26 07:10:00,
2013-03-26 03:15:00,30.6,26.6,29.69,WNW,292,0.0,0.0,85,0.00,,,0.00,WUHU21623XXSP,2013-03-26 07:15:00,
2013-03-26 03:20:00,30.6,26.6,29.69,WNW,292,0.0,0.0,85,0.00,,,0.00,WUHU21623XXSP,2013-03-26 07:20:00,
2013-03-26 03:25:00,30.7,26.8,29.69,WNW,292,0.0,0.0,85,0.00,,,0.00,WUHU21623XXSP,2013-03-26 07:25:00,
2013-03-26 03:30:00,30.6,26.8,29.69,WNW,292,0.0,0.0,85,0.00,,,0.00,WUHU21623XXSP,2013-03-26 07:30:00,
2013-03-26 03:35:00,30.6,26.6,29.69,WNW,292,0.0,0.0,85,0.00,,,0.00,WUHU21623XXSP,2013-03-26 07:35:00,
2013-03-26 03:40:00,30.6,26.6,29.69,WNW,292,0.0,0.0,85,0.00,,,0.00,WUHU21623XXSP,2013-03-26 07:40:00,
2013-03-26 03:45:00,30.6,26.6,29.69,WNW,292,0.0,0.0,85,0.00,,,0.00,WUHU21623XXSP,2013-03-26 07:45:00,
2013-03-26 03:50:00,30.6,26.6,29.69,WNW,292,0.0,0.0,85,0.00,,,0.00,WUHU21623XXSP,2013-03-26 07:50:00,
2013-03-26 03:55:00,30.6,26.6,29.69,WNW,292,0.0,0.0,85,0.00,,,0.00,WUHU21623XXSP,2013-03-26 07:55:00,
2013-03-26 04:00:00,30.6,26.6,29.69,WNW,292,0.0,0.0,85,0.00,,,0.00,WUHU21623XXSP,2013-03-26 08:00:00,
2013-03-26 04:05:00,30.7,26.8,29.69,WNW,292,0.0,0.0,85,0.00,,,0.00,WUHU21623XXSP,2013-03-26 08:05:00,
2013-03-26 04:10:00,30.7,26.8,29.69,WNW,292,0.0,0.0,85,0.00,,,0.00,WUHU21623XXSP,2013-03-26 08:10:00,
2013-03-26 04:15:00,30.7,26.8,29.69,WNW,292,0.0,0.0,85,0.00,,,0.00,WUHU21623XXSP,2013-03-26 08:15:00,
2013-03-26 04:20:00,30.6,26.6,29.69,WNW,292,0.0,0.0,85,0.00,,,0.00,WUHU21623XXSP,2013-03-26 08:20:00,
2013-03-26 04:25:00,30.7,26.5,29.69,WNW,292,0.0,0.0,84,0.00,,,0.00,WUHU21623XXSP,2013-03-26 08:25:00,
2013-03-26 04:30:00,30.7,26.5,29.69,WNW,292,0.0,0.0,84,0.00,,,0.00,WUHU21623XXSP,2013-03-26 08:30:00,
2013-03-26 04:35:00,30.7,26.5,29.69,WNW,292,0.0,0.0,84,0.00,,,0.00,WUHU21623XXSP,2013-03-26 08:35:00,
2013-03-26 04:40:00,30.7,26.5,29.69,WNW,292,0.0,0.0,84,0.00,,,0.00,WUHU21623XXSP,2013-03-26 08:40:00,
2013-03-26 04:45:00,30.7,26.5,29.69,WNW,292,0.0,0.0,84,0.00,,,0.00,WUHU21623XXSP,2013-03-26 08:45:00,
2013-03-26 04:50:00,30.7,26.5,29.69,WNW,292,0.0,0.0,84,0.00,,,0.00,WUHU21623XXSP,2013-03-26 08:50:00,
2013-03-26 04:55:00,30.7,26.5,29.70,WNW,292,0.0,0.0,84,0.00,,,0.00,WUHU21623XXSP,2013-03-26 08:55:00,
2013-03-26 05:00:00,30.7,26.5,29.70,WNW,292,0.0,0.0,84,0.00,,,0.00,WUHU21623XXSP,2013-03-26 09:00:00,
2013-03-26 05:05:00,31.3,27.3,29.70,WNW,292,0.0,0.0,85,0.00,,,0.00,WUHU21623XXSP,2013-03-26 09:05:00,
2013-03-26 05:10:00,30.9,26.7,29.70,WNW,292,0.0,0.0,84,0.00,,,0.00,WUHU21623XXSP,2013-03-26 09:10:00,
2013-03-26 05:15:00,30.7,26.2,29.70,WNW,292,0.0,0.0,83,0.00,,,0.00,WUHU21623XXSP,2013-03-26 09:15:00,
2013-03-26 05:20:00,30.4,26.1,29.70,WNW,292,0.0,0.0,84,0.00,,,0.00,WUHU21623XXSP,2013-03-26 09:20:00,
2013-03-26 05:25:00,30.2,26.2,29.70,WNW,292,0.0,0.0,85,0.00,,,0.00,WUHU21623XXSP,2013-03-26 09:25:00,
2013-03-26 05:30:00,30.0,26.1,29.71,WNW,292,0.0,0.0,85,0.00,,,0.00,WUHU21623XXSP,2013-03-26 09:30:00,
2013-03-26 05:35:00,30.0,26.1,29.71,WNW,292,0.0,0.0,85,0.00,,,0.00,WUHU21623XXSP,2013-03-26 09:35:00,
2013-03-26 05:40:00,30.0,26.1,29.71,WNW,292,0.0,0.0,85,0.00,,,0.00,WUHU21623XXSP,2013-03-26 09:40:00,
2013-03-26 05:45:00,31.3,27.6,29.71,WNW,292,0.0,0.0,86,0.00,,,0.00,WUHU21623XXSP,2013-03-26 09:45:00,
2013-03-26 05:50:00,30.7,27.1,29.71,WNW,292,0.0,0.0,86,0.00,,,0.00,WUHU21623XXSP,2013-03-26 09:50:00,
2013-03-26 05:55:00,30.6,26.9,29.71,WNW,292,0.0,0.0,86,0.00,,,0.00,WUHU21623XXSP,2013-03-26 09:55:00,
2013-03-26 06:00:00,30.4,26.7,29.71,WNW,292,0.0,0.0,86,0.00,,,0.00,WUHU21623XXSP,2013-03-26 10:00:00,
2013-03-26 06:05:00,30.4,26.7,29.71,WNW,292,0.0,0.0,86,0.00,,,0.00,WUHU21623XXSP,2013-03-26 10:05:00,
2013-03-26 06:10:00,30.6,26.6,29.71,WNW,292,0.0,0.0,85,0.00,,,0.00,WUHU21623XXSP,2013-03-26 10:10:00,
2013-03-26 06:15:00,30.6,26.9,29.71,WNW,292,0.0,0.0,86,0.00,,,0.00,WUHU21623XXSP,2013-03-26 10:15:00,
2013-03-26 06:20:00,30.6,26.9,29.71,WNW,292,0.0,0.0,86,0.00,,,0.00,WUHU21623XXSP,2013-03-26 10:20:00,
2013-03-26 06:25:00,30.4,26.7,29.72,WNW,292,0.0,0.0,86,0.00,,,0.00,WUHU21623XXSP,2013-03-26 10:25:00,
2013-03-26 06:30:00,30.6,26.9,29.72,WNW,292,0.0,0.0,86,0.00,,,0.00,WUHU21623XXSP,2013-03-26 10:30:00,
2013-03-26 06:35:00,30.6,26.9,29.72,WNW,292,0.0,0.0,86,0.00,,,0.00,WUHU21623XXSP,2013-03-26 10:35:00,
2013-03-26 06:40:00,30.9,27.5,29.72,WNW,292,0.0,0.0,87,0.00,,,0.00,WUHU21623XXSP,2013-03-26 10:40:00,
2013-03-26 06:45:00,30.6,27.1,29.72,WNW,292,0.0,0.0,86,0.00,,,0.00,WUHU21623XXSP,2013-03-26 10:45:00,
2013-03-26 06:50:00,30.4,26.7,29.72,WNW,292,0.0,0.0,86,0.00,,,0.00,WUHU21623XXSP,2013-03-26 10:50:00,
2013-03-26 06:55:00,30.6,26.9,29.72,WNW,292,0.0,0.0,86,0.00,,,0.00,WUHU21623XXSP,2013-03-26 10:55:00,
2013-03-26 07:00:00,30.7,27.1,29.73,WNW,292,0.0,0.0,86,0.00,,,0.00,WUHU21623XXSP,2013-03-26 11:00:00,
2013-03-26 07:05:00,30.7,27.1,29.73,WNW,292,0.0,0.0,86,0.00,,,0.00,WUHU21623XXSP,2013-03-26 11:05:00,
2013-03-26 07:10:00,30.7,27.1,29.73,WNW,292,0.0,0.0,86,0.00,,,0.00,WUHU21623XXSP,2013-03-26 11:10:00,
2013-03-26 07:15:00,30.9,27.0,29.73,WNW,292,0.0,0.0,85,0.00,,,0.00,WUHU21623XXSP,2013-03-26 11:15:00,
2013-03-26 07:20:00,31.8,27.9,29.73,WNW,292,0.0,0.0,85,0.00,,,0.00,WUHU21623XXSP,2013-03-26 11:20:00,
2013-03-26 07:25:00,31.5,27.2,29.74,WNW,292,0.0,0.0,84,0.00,,,0.00,WUHU21623XXSP,2013-03-26 11:25:00,
2013-03-26 07:30:00,31.3,27.0,29.74,WNW,292,0.0,0.0,84,0.00,,,0.00,WUHU21623XXSP,2013-03-26 11:30:00,
2013-03-26 07:35:00,31.3,27.0,29.74,West,270,0.0,0.0,84,0.00,,,0.00,WUHU21623XXSP,2013-03-26 11:35:00,
2013-03-26 07:40:00,31.3,27.0,29.74,West,270,0.0,0.0,84,0.00,,,0.00,WUHU21623XXSP,2013-03-26 11:40:00,
2013-03-26 07:45:00,31.5,27.2,29.74,West,270,0.0,0.0,84,0.00,,,0.00,WUHU21623XXSP,2013-03-26 11:45:00,
2013-03-26 07:50:00,31.6,27.1,29.74,West,270,0.0,0.0,83,0.00,,,0.00,WUHU21623XXSP,2013-03-26 11:50:00,
2013-03-26 07:55:00,31.6,27.1,29.74,West,270,0.0,2.5,83,0.00,,,0.00,WUHU21623XXSP,2013-03-26 11:55:00,
2013-03-26 08:00:00,31.8,27.0,29.74,West,270,0.0,2.5,82,0.00,,,0.00,WUHU21623XXSP,2013-03-26 12:00:00,
2013-03-26 08:05:00,32.2,27.3,29.74,West,270,0.0,4.0,82,0.00,,,0.00,WUHU21623XXSP,2013-03-26 12:05:00,
2013-03-26 08:10:00,32.5,27.1,29.74,WNW,292,2.0,4.0,80,0.00,,,0.00,WUHU21623XXSP,2013-03-26 12:10:00,
2013-03-26 08:15:00,32.9,27.1,29.74,West,270,3.1,4.3,79,0.00,,,0.00,WUHU21623XXSP,2013-03-26 12:15:00,
2013-03-26 08:20:00,33.4,27.2,29.75,WNW,292,0.0,4.3,78,0.00,,,0.00,WUHU21623XXSP,2013-03-26 12:20:00,
2013-03-26 08:25:00,33.6,27.1,29.75,WNW,292,3.1,3.4,77,0.00,,,0.00,WUHU21623XXSP,2013-03-26 12:25:00,
2013-03-26 08:30:00,33.6,26.8,29.75,WNW,292,0.0,4.5,76,0.00,,,0.00,WUHU21623XXSP,2013-03-26 12:30:00,
2013-03-26 08:35:00,33.8,26.8,29.75,WNW,292,2.0,6.5,75,0.00,,,0.00,WUHU21623XXSP,2013-03-26 12:35:00,
2013-03-26 08:40:00,34.0,26.5,29.75,WNW,292,4.7,6.5,74,0.00,,,0.00,WUHU21623XXSP,2013-03-26 12:40:00,
2013-03-26 08:45:00,34.2,26.0,29.76,West,270,0.0,4.9,72,0.00,,,0.00,WUHU21623XXSP,2013-03-26 12:45:00,
2013-03-26 08:50:00,34.3,25.8,29.76,NNW,337,1.6,4.9,71,0.00,,,0.00,WUHU21623XXSP,2013-03-26 12:50:00,
2013-03-26 08:55:00,34.3,25.2,29.76,WNW,292,5.4,5.4,69,0.00,,,0.00,WUHU21623XXSP,2013-03-26 12:55:00,
2013-03-26 09:00:00,34.5,24.6,29.76,WNW,292,3.8,5.4,67,0.00,,,0.00,WUHU21623XXSP,2013-03-26 13:00:00,
2013-03-26 09:05:00,34.5,24.3,29.76,WSW,247,4.0,5.8,66,0.00,,,0.00,WUHU21623XXSP,2013-03-26 13:05:00,
2013-03-26 09:10:00,34.7,24.1,29.76,WNW,292,2.0,6.9,65,0.00,,,0.00,WUHU21623XXSP,2013-03-26 13:10:00,
2013-03-26 09:15:00,34.9,23.9,29.76,West,270,0.0,6.9,64,0.00,,,0.00,WUHU21623XXSP,2013-03-26 13:15:00,
2013-03-26 09:20:00,34.9,23.9,29.76,WNW,292,0.0,5.8,64,0.00,,,0.00,WUHU21623XXSP,2013-03-26 13:20:00,
2013-03-26 09:25:00,35.4,24.8,29.76,NNW,337,0.0,4.5,65,0.00,,,0.00,WUHU21623XXSP,2013-03-26 13:25:00,
2013-03-26 09:30:00,35.4,23.7,29.76,WNW,292,0.0,4.0,62,0.00,,,0.00,WUHU21623XXSP,2013-03-26 13:30:00,
2013-03-26 09:35:00,36.0,23.9,29.76,West,270,0.0,5.4,61,0.00,,,0.00,WUHU21623XXSP,2013-03-26 13:35:00,
2013-03-26 09:40:00,36.3,23.8,29.76,NW,315,3.4,6.3,60,0.00,,,0.00,WUHU21623XXSP,2013-03-26 13:40:00,
2013-03-26 09:45:00,36.5,23.6,29.76,West,270,3.6,7.4,59,0.00,,,0.00,WUHU21623XXSP,2013-03-26 13:45:00,
2013-03-26 09:50:00,36.7,22.9,29.76,NNW,337,4.0,8.7,57,0.00,,,0.00,WUHU21623XXSP,2013-03-26 13:50:00,
2013-03-26 09:55:00,37.0,23.2,29.77,NNW,337,3.8,8.7,57,0.00,,,0.00,WUHU21623XXSP,2013-03-26 13:55:00,
2013-03-26 10:00:00,37.2,22.9,29.76,WNW,292,3.4,7.8,56,0.00,,,0.00,WUHU21623XXSP,2013-03-26 14:00:00,
2013-03-26 10:05:00,37.6,23.7,29.76,WNW,292,3.1,7.8,57,0.00,,,0.00,WUHU21623XXSP,2013-03-26 14:05:00,
2013-03-26 10:10:00,37.9,23.6,29.77,NW,315,8.9,9.4,56,0.00,,,0.00,WUHU21623XXSP,2013-03-26 14:10:00,
2013-03-26 10:15:00,37.9,23.1,29.77,West,270,0.0,9.4,55,0.00,,,0.00,WUHU21623XXSP,2013-03-26 14:15:00,
2013-03-26 10:20:00,37.8,23.4,29.77,West,270,0.0,7.6,56,0.00,,,0.00,WUHU21623XXSP,2013-03-26 14:20:00,
2013-03-26 10:25:00,37.0,22.3,29.77,WNW,292,2.2,7.4,55,0.00,,,0.00,WUHU21623XXSP,2013-03-26 14:25:00,
2013-03-26 10:30:00,36.5,21.4,29.77,WSW,247,0.0,7.4,54,0.00,,,0.00,WUHU21623XXSP,2013-03-26 14:30:00,
2013-03-26 10:35:00,36.7,22.0,29.77,NW,315,3.8,4.7,55,0.00,,,0.00,WUHU21623XXSP,2013-03-26 14:35:00,
2013-03-26 10:40:00,37.6,22.8,29.76,West,270,0.0,4.7,55,0.00,,,0.00,WUHU21623XXSP,2013-03-26 14:40:00,
2013-03-26 10:45:00,37.9,22.3,29.77,WNW,292,5.8,6.3,53,0.00,,,0.00,WUHU21623XXSP,2013-03-26 14:45:00,
2013-03-26 10:50:00,38.5,22.3,29.77,West,270,0.0,6.7,52,0.00,,,0.00,WUHU21623XXSP,2013-03-26 14:50:00,
2013-03-26 10:55:00,38.1,22.0,29.77,WNW,292,4.0,7.4,52,0.00,,,0.00,WUHU21623XXSP,2013-03-26 14:55:00,
2013-03-26 11:00:00,37.9,21.8,29.77,WSW,247,0.0,7.4,52,0.00,,,0.00,WUHU21623XXSP,2013-03-26 15:00:00,
2013-03-26 11:05:00,37.9,21.8,29.77,NW,315,0.0,5.8,52,0.00,,,0.00,WUHU21623XXSP,2013-03-26 15:05:00,
2013-03-26 11:10:00,38.5,23.0,29.77,NW,315,0.0,3.1,53,0.00,,,0.00,WUHU21623XXSP,2013-03-26 15:10:00,
2013-03-26 11:15:00,39.6,22.9,29.77,NW,315,0.0,3.8,51,0.00,,,0.00,WUHU21623XXSP,2013-03-26 15:15:00,
2013-03-26 11:20:00,39.0,21.9,29.76,West,270,3.1,5.6,50,0.00,,,0.00,WUHU21623XXSP,2013-03-26 15:20:00,
2013-03-26 11:25:00,39.0,20.9,29.77,NW,315,1.6,6.7,48,0.00,,,0.00,WUHU21623XXSP,2013-03-26 15:25:00,
2013-03-26 11:30:00,39.9,21.7,29.77,NW,315,0.0,6.7,48,0.00,,,0.00,WUHU21623XXSP,2013-03-26 15:30:00,
2013-03-26 11:35:00,40.1,21.9,29.78,NNW,337,1.1,4.9,48,0.00,,,0.00,WUHU21623XXSP,2013-03-26 15:35:00,
2013-03-26 11:40:00,39.7,21.0,29.78,NW,315,0.0,8.9,47,0.00,,,0.00,WUHU21623XXSP,2013-03-26 15:40:00,
2013-03-26 11:45:00,39.9,21.2,29.78,West,270,5.1,8.9,47,0.00,,,0.00,WUHU21623XXSP,2013-03-26 15:45:00,
2013-03-26 11:50:00,40.6,21.3,29.78,NW,315,4.7,7.2,46,0.00,,,0.00,WUHU21623XXSP,2013-03-26 15:50:00,
2013-03-26 11:55:00,39.6,20.9,29.78,WNW,292,0.0,7.2,47,0.00,,,0.00,WUHU21623XXSP,2013-03-26 15:55:00,
2013-03-26 12:00:00,39.9,21.2,29.78,West,270,0.0,6.5,47,0.00,,,0.00,WUHU21623XXSP,2013-03-26 16:00:00,
2013-03-26 12:05:00,40.8,20.9,29.78,WNW,292,2.2,6.5,45,0.00,,,0.00,WUHU21623XXSP,2013-03-26 16:05:00,
2013-03-26 12:10:00,41.2,21.3,29.78,NNW,337,0.0,8.1,45,0.00,,,0.00,WUHU21623XXSP,2013-03-26 16:10:00,
2013-03-26 12:15:00,41.5,21.1,29.78,West,270,0.0,8.1,44,0.00,,,0.00,WUHU21623XXSP,2013-03-26 16:15:00,
2013-03-26 12:20:00,41.5,20.6,29.78,WNW,292,1.3,5.4,43,0.00,,,0.00,WUHU21623XXSP,2013-03-26 16:20:00,
2013-03-26 12:25:00,41.4,20.4,29.78,West,270,0.0,8.5,43,0.00,,,0.00,WUHU21623XXSP,2013-03-26 16:25:00,
2013-03-26 12:30:00,41.7,20.7,29.78,WNW,292,6.0,8.5,43,0.00,,,0.00,WUHU21623XXSP,2013-03-26 16:30:00,
2013-03-26 12:35:00,42.1,21.1,29.78,WNW,292,2.7,6.7,43,0.00,,,0.00,WUHU21623XXSP,2013-03-26 16:35:00,
2013-03-26 12:40:00,42.4,20.9,29.78,West,270,0.0,6.7,42,0.02,,,0.02,WUHU21623XXSP,2013-03-26 16:40:00,
2013-03-26 12:45:00,42.6,21.0,29.78,NNW,337,3.8,8.5,42,0.02,,,0.02,WUHU21623XXSP,2013-03-26 16:45:00,
2013-03-26 12:50:00,42.6,20.5,29.77,WNW,292,0.0,8.5,41,0.02,,,0.02,WUHU21623XXSP,2013-03-26 16:50:00,
2013-03-26 12:55:00,43.2,21.5,29.78,WNW,292,5.4,8.1,42,0.02,,,0.02,WUHU21623XXSP,2013-03-26 16:55:00,
2013-03-26 13:00:00,43.0,20.8,29.78,West,270,3.6,8.7,41,0.02,,,0.02,WUHU21623XXSP,2013-03-26 17:00:00,
2013-03-26 13:05:00,42.6,20.0,29.79,WSW,247,0.0,8.7,40,0.02,,,0.02,WUHU21623XXSP,2013-03-26 17:05:00,
2013-03-26 13:10:00,43.0,20.8,29.78,West,270,1.8,7.6,41,0.02,,,0.02,WUHU21623XXSP,2013-03-26 17:10:00,
2013-03-26 13:15:00,43.5,20.8,29.78,WNW,292,5.1,5.6,40,0.02,,,0.02,WUHU21623XXSP,2013-03-26 17:15:00,
2013-03-26 13:20:00,43.3,20.6,29.78,NNW,337,6.0,7.4,40,0.02,,,0.02,WUHU21623XXSP,2013-03-26 17:20:00,
2013-03-26 13:25:00,43.5,21.3,29.78,WNW,292,8.1,8.3,41,0.02,,,0.02,WUHU21623XXSP,2013-03-26 17:25:00,
2013-03-26 13:30:00,43.3,21.1,29.79,West,270,0.0,8.3,41,0.02,,,0.02,WUHU21623XXSP,2013-03-26 17:30:00,
2013-03-26 13:35:00,43.7,22.0,29.78,West,270,0.0,5.4,42,0.02,,,0.02,WUHU21623XXSP,2013-03-26 17:35:00,
2013-03-26 13:40:00,44.4,22.1,29.78,West,270,2.0,11.0,41,0.00,,,0.02,WUHU21623XXSP,2013-03-26 17:40:00,
2013-03-26 13:45:00,43.5,21.3,29.78,West,270,1.8,11.0,41,0.00,,,0.02,WUHU21623XXSP,2013-03-26 17:45:00,
2013-03-26 13:50:00,43.3,20.6,29.78,WNW,292,6.5,7.2,40,0.00,,,0.02,WUHU21623XXSP,2013-03-26 17:50:00,
2013-03-26 13:55:00,43.5,20.8,29.78,NNW,337,3.6,7.6,40,0.00,,,0.02,WUHU21623XXSP,2013-03-26 17:55:00,
2013-03-26 14:00:00,43.9,20.4,29.78,WNW,292,0.0,8.1,39,0.00,,,0.02,WUHU21623XXSP,2013-03-26 18:00:00,
2013-03-26 14:05:00,44.1,21.3,29.78,NW,315,2.9,11.4,40,0.00,,,0.02,WUHU21623XXSP,2013-03-26 18:05:00,
2013-03-26 14:11:00,44.2,22.0,29.78,NW,315,5.4,11.4,41,0.00,,,0.02,WUHU21623XXSP,2013-03-26 18:11:00,
2013-03-26 14:16:00,44.1,21.8,29.78,WNW,292,5.4,11.4,41,0.00,,,0.02,WUHU21623XXSP,2013-03-26 18:16:00,
2013-03-26 14:20:00,44.2,21.4,29.78,NNW,337,3.4,11.4,40,0.00,,,0.02,WUHU21623XXSP,2013-03-26 18:20:00,
2013-03-26 14:25:00,43.5,20.8,29.78,West,270,3.6,10.5,40,0.00,,,0.02,WUHU21623XXSP,2013-03-26 18:25:00,
2013-03-26 14:30:00,43.3,20.6,29.78,WNW,292,0.0,10.5,40,0.00,,,0.02,WUHU21623XXSP,2013-03-26 18:30:00,
2013-03-26 14:36:00,42.4,20.9,29.78,West,270,7.6,7.6,42,0.00,,,0.02,WUHU21623XXSP,2013-03-26 18:36:00,
2013-03-26 14:41:00,42.1,20.0,29.79,WNW,292,3.8,7.6,41,0.00,,,0.02,WUHU21623XXSP,2013-03-26 18:41:00,
2013-03-26 14:46:00,42.8,21.2,29.79,NW,315,0.0,7.6,42,0.00,,,0.02,WUHU21623XXSP,2013-03-26 18:46:00,
2013-03-26 14:51:00,43.3,21.1,29.78,WNW,292,4.5,6.3,41,0.00,,,0.02,WUHU21623XXSP,2013-03-26 18:51:00,
2013-03-26 14:56:00,43.5,21.3,29.78,WSW,247,0.0,6.3,41,0.00,,,0.02,WUHU21623XXSP,2013-03-26 18:56:00,
2013-03-26 15:01:00,43.9,21.6,29.78,WNW,292,3.4,7.2,41,0.00,,,0.02,WUHU21623XXSP,2013-03-26 19:01:00,
2013-03-26 15:06:00,43.9,21.1,29.78,West,270,5.8,9.2,40,0.00,,,0.02,WUHU21623XXSP,2013-03-26 19:06:00,
2013-03-26 15:11:00,43.5,21.3,29.78,West,270,2.0,9.2,41,0.00,,,0.02,WUHU21623XXSP,2013-03-26 19:11:00,
2013-03-26 15:16:00,43.5,20.8,29.79,NW,315,3.8,8.3,40,0.00,,,0.02,WUHU21623XXSP,2013-03-26 19:16:00,
2013-03-26 15:21:00,43.2,20.4,29.79,WNW,292,0.0,7.6,40,0.00,,,0.02,WUHU21623XXSP,2013-03-26 19:21:00,
2013-03-26 15:26:00,43.5,21.3,29.78,West,270,0.0,7.8,41,0.00,,,0.02,WUHU21623XXSP,2013-03-26 19:26:00,
2013-03-26 15:31:00,43.3,20.6,29.79,WNW,292,4.9,8.9,40,0.00,,,0.02,WUHU21623XXSP,2013-03-26 19:31:00,
2013-03-26 15:36:00,43.0,20.3,29.79,WNW,292,6.7,8.9,40,0.00,,,0.02,WUHU21623XXSP,2013-03-26 19:36:00,
2013-03-26 15:41:00,42.6,20.0,29.79,WNW,292,1.6,10.5,40,0.00,,,0.02,WUHU21623XXSP,2013-03-26 19:41:00,
2013-03-26 15:46:00,42.1,19.5,29.78,West,270,0.0,10.5,40,0.00,,,0.02,WUHU21623XXSP,2013-03-26 19:46:00,
2013-03-26 15:51:00,43.0,20.3,29.79,WNW,292,4.3,6.9,40,0.00,,,0.02,WUHU21623XXSP,2013-03-26 19:51:00,
2013-03-26 15:56:00,44.1,20.6,29.78,WSW,247,1.6,6.0,39,0.00,,,0.02,WUHU21623XXSP,2013-03-26 19:56:00,
2013-03-26 16:01:00,43.3,19.9,29.78,WNW,292,2.5,6.3,39,0.00,,,0.02,WUHU21623XXSP,2013-03-26 20:01:00,
2013-03-26 16:06:00,42.6,19.3,29.78,NW,315,0.0,9.2,39,0.00,,,0.02,WUHU21623XXSP,2013-03-26 20:06:00,
2013-03-26 16:11:00,43.0,20.3,29.78,West,270,0.0,9.2,40,0.00,,,0.02,WUHU21623XXSP,2013-03-26 20:11:00,
2013-03-26 16:16:00,44.1,20.6,29.79,WSW,247,2.0,7.6,39,0.00,,,0.02,WUHU21623XXSP,2013-03-26 20:16:00,
2013-03-26 16:21:00,44.2,20.8,29.79,WSW,247,0.0,7.6,39,0.00,,,0.02,WUHU21623XXSP,2013-03-26 20:21:00,
2013-03-26 16:26:00,44.4,20.9,29.79,NW,315,7.8,7.8,39,0.00,,,0.02,WUHU21623XXSP,2013-03-26 20:26:00,
2013-03-26 16:31:00,42.6,19.6,29.79,West,270,2.5,8.9,39,0.00,,,0.02,WUHU21623XXSP,2013-03-26 20:31:00,
2013-03-26 16:36:00,42.4,20.3,29.79,WSW,247,1.6,8.9,41,0.00,,,0.02,WUHU21623XXSP,2013-03-26 20:36:00,
2013-03-26 16:41:00,43.2,20.4,29.79,WSW,247,2.2,8.3,40,0.00,,,0.02,WUHU21623XXSP,2013-03-26 20:41:00,
2013-03-26 16:46:00,44.2,20.8,29.79,WSW,247,0.0,9.4,39,0.00,,,0.02,WUHU21623XXSP,2013-03-26 20:46:00,
2013-03-26 16:51:00,44.4,20.2,29.79,WSW,247,0.0,9.4,38,0.00,,,0.02,WUHU21623XXSP,2013-03-26 20:51:00,
2013-03-26 16:56:00,44.2,20.8,29.79,WSW,247,0.0,8.5,38,0.00,,,0.02,WUHU21623XXSP,2013-03-26 20:56:00,
2013-03-26 17:01:00,44.4,20.9,29.79,WNW,292,0.0,7.8,39,0.00,,,0.02,WUHU21623XXSP,2013-03-26 21:01:00,
2013-03-26 17:06:00,44.1,20.6,29.79,WSW,247,0.0,7.8,39,0.00,,,0.02,WUHU21623XXSP,2013-03-26 21:06:00,
2013-03-26 17:11:00,43.7,21.5,29.80,WNW,292,7.4,7.4,41,0.00,,,0.02,WUHU21623XXSP,2013-03-26 21:11:00,
2013-03-26 17:16:00,43.2,19.9,29.80,WSW,247,4.7,7.4,39,0.00,,,0.02,WUHU21623XXSP,2013-03-26 21:16:00,
2013-03-26 17:21:00,42.6,20.0,29.80,NW,315,4.9,7.4,40,0.00,,,0.02,WUHU21623XXSP,2013-03-26 21:21:00,
2013-03-26 17:26:00,42.4,19.8,29.80,WSW,247,2.7,7.4,40,0.00,,,0.02,WUHU21623XXSP,2013-03-26 21:26:00,
2013-03-26 17:31:00,42.4,19.8,29.80,WSW,247,1.1,7.4,40,0.00,,,0.02,WUHU21623XXSP,2013-03-26 21:31:00,
2013-03-26 17:36:00,42.3,20.7,29.80,West,270,1.1,7.4,42,0.00,,,0.02,WUHU21623XXSP,2013-03-26 21:36:00,
2013-03-26 17:41:00,42.1,19.5,29.81,WSW,247,2.9,7.2,40,0.00,,,0.02,WUHU21623XXSP,2013-03-26 21:41:00,
2013-03-26 17:46:00,42.1,20.0,29.81,WSW,247,2.0,8.7,41,0.00,,,0.02,WUHU21623XXSP,2013-03-26 21:46:00,
2013-03-26 17:51:00,42.1,20.0,29.81,WNW,292,0.0,8.7,41,0.00,,,0.02,WUHU21623XXSP,2013-03-26 21:51:00,
2013-03-26 17:56:00,42.1,20.0,29.81,WNW,292,0.0,6.3,41,0.00,,,0.02,WUHU21623XXSP,2013-03-26 21:56:00,
2013-03-26 18:01:00,41.9,20.4,29.81,WNW,292,0.0,6.3,42,0.00,,,0.02,WUHU21623XXSP,2013-03-26 22:01:00,
2013-03-26 18:07:00,41.5,20.0,29.81,WNW,292,4.5,9.8,42,0.00,,,0.02,WUHU21623XXSP,2013-03-26 22:07:00,
2013-03-26 18:12:00,41.2,19.7,29.82,West,270,3.6,9.8,42,0.00,,,0.02,WUHU21623XXSP,2013-03-26 22:12:00,
2013-03-26 18:17:00,41.0,20.1,29.82,West,270,0.0,8.9,43,0.00,,,0.02,WUHU21623XXSP,2013-03-26 22:17:00,
2013-03-26 18:22:00,40.8,22.0,29.82,WNW,292,0.0,6.0,47,0.00,,,0.02,WUHU21623XXSP,2013-03-26 22:22:00,
2013-03-26 18:27:00,40.6,20.3,29.82,West,270,0.0,3.6,44,0.00,,,0.02,WUHU21623XXSP,2013-03-26 22:27:00,
2013-03-26 18:32:00,40.1,20.3,29.82,WSW,247,0.0,6.3,45,0.00,,,0.02,WUHU21623XXSP,2013-03-26 22:32:00,
2013-03-26 18:37:00,39.9,20.1,29.83,WNW,292,0.0,6.3,45,0.00,,,0.02,WUHU21623XXSP,2013-03-26 22:37:00,
2013-03-26 18:42:00,39.6,19.8,29.83,SSW,202,0.0,5.4,45,0.00,,,0.02,WUHU21623XXSP,2013-03-26 22:42:00,
2013-03-26 18:47:00,39.6,20.3,29.82,WNW,292,0.0,4.9,46,0.00,,,0.02,WUHU21623XXSP,2013-03-26 22:47:00,
2013-03-26 18:52:00,39.4,20.2,29.83,WNW,292,0.0,4.9,46,0.00,,,0.02,WUHU21623XXSP,2013-03-26 22:52:00,
2013-03-26 18:57:00,39.0,19.9,29.83,NW,315,0.0,3.6,46,0.00,,,0.02,WUHU21623XXSP,2013-03-26 22:57:00,
2013-03-26 19:02:00,38.8,19.7,29.83,WNW,292,0.0,4.9,46,0.00,,,0.02,WUHU21623XXSP,2013-03-26 23:02:00,
2013-03-26 19:07:00,38.7,20.0,29.84,NW,315,0.0,4.9,47,0.00,,,0.02,WUHU21623XXSP,2013-03-26 23:07:00,
2013-03-26 19:12:00,38.8,21.8,29.84,NW,315,0.0,2.2,50,0.00,,,0.02,WUHU21623XXSP,2013-03-26 23:12:00,
2013-03-26 19:17:00,38.8,20.2,29.84,West,270,0.0,1.3,47,0.00,,,0.02,WUHU21623XXSP,2013-03-26 23:17:00,
2013-03-26 19:22:00,38.3,20.8,29.84,West,270,0.0,4.5,49,0.00,,,0.02,WUHU21623XXSP,2013-03-26 23:22:00,
2013-03-26 19:27:00,38.3,20.8,29.84,West,270,2.0,4.7,49,0.00,,,0.02,WUHU21623XXSP,2013-03-26 23:27:00,
2013-03-26 19:32:00,38.1,20.6,29.84,WNW,292,0.0,4.9,49,0.00,,,0.02,WUHU21623XXSP,2013-03-26 23:32:00,
2013-03-26 19:37:00,37.8,20.3,29.84,WNW,292,2.2,4.9,49,0.00,,,0.02,WUHU21623XXSP,2013-03-26 23:37:00,
2013-03-26 19:42:00,37.8,20.3,29.85,West,270,0.0,4.5,49,0.00,,,0.02,WUHU21623XXSP,2013-03-26 23:42:00,
2013-03-26 19:47:00,37.8,20.3,29.85,West,270,1.3,4.5,49,0.00,,,0.02,WUHU21623XXSP,2013-03-26 23:47:00,
2013-03-26 19:52:00,37.6,20.6,29.85,WNW,292,0.0,6.5,50,0.00,,,0.02,WUHU21623XXSP,2013-03-26 23:52:00,
2013-03-26 19:57:00,37.4,20.9,29.85,West,270,0.0,6.5,51,0.00,,,0.02,WUHU21623XXSP,2013-03-26 23:57:00,
2013-03-26 20:02:00,37.6,21.1,29.85,WNW,292,0.0,3.4,51,0.00,,,0.02,WUHU21623XXSP,2013-03-27 00:02:00,
2013-03-26 20:07:00,37.2,20.8,29.85,WNW,292,0.0,3.4,51,0.00,,,0.02,WUHU21623XXSP,2013-03-27 00:07:00,
2013-03-26 20:12:00,37.0,20.6,29.85,WNW,292,0.0,2.2,51,0.00,,,0.02,WUHU21623XXSP,2013-03-27 00:12:00,
2013-03-26 20:17:00,36.7,20.3,29.86,WNW,292,1.6,4.5,51,0.00,,,0.02,WUHU21623XXSP,2013-03-27 00:17:00,
2013-03-26 20:22:00,36.7,21.1,29.86,WNW,292,0.0,4.5,53,0.00,,,0.02,WUHU21623XXSP,2013-03-27 00:22:00,
2013-03-26 20:27:00,37.0,20.6,29.86,WNW,292,0.0,6.9,51,0.00,,,0.02,WUHU21623XXSP,2013-03-27 00:27:00,
2013-03-26 20:32:00,36.5,20.1,29.86,WNW,292,0.0,6.9,51,0.00,,,0.02,WUHU21623XXSP,2013-03-27 00:32:00,
2013-03-26 20:37:00,36.7,20.3,29.86,WNW,292,1.6,5.6,51,0.00,,,0.02,WUHU21623XXSP,2013-03-27 00:37:00,
2013-03-26 20:42:00,36.3,19.9,29.87,WNW,292,0.0,4.0,51,0.00,,,0.02,WUHU21623XXSP,2013-03-27 00:42:00,
2013-03-26 20:47:00,36.5,20.5,29.87,NW,315,0.0,4.3,52,0.00,,,0.02,WUHU21623XXSP,2013-03-27 00:47:00,
2013-03-26 20:52:00,36.3,20.4,29.87,WNW,292,5.1,5.1,52,0.00,,,0.02,WUHU21623XXSP,2013-03-27 00:52:00,
2013-03-26 20:57:00,36.1,20.2,29.87,WNW,292,1.6,5.1,52,0.00,,,0.02,WUHU21623XXSP,2013-03-27 00:57:00,
2013-03-26 21:02:00,36.1,20.2,29.87,WNW,292,0.0,4.9,52,0.00,,,0.02,WUHU21623XXSP,2013-03-27 01:02:00,
2013-03-26 21:07:00,36.0,20.5,29.87,WNW,292,3.8,6.7,53,0.00,,,0.02,WUHU21623XXSP,2013-03-27 01:07:00,
2013-03-26 21:12:00,36.0,20.5,29.87,WNW,292,0.0,6.7,53,0.00,,,0.02,WUHU21623XXSP,2013-03-27 01:12:00,
2013-03-26 21:17:00,35.8,20.3,29.87,NW,315,2.9,6.5,53,0.00,,,0.02,WUHU21623XXSP,2013-03-27 01:17:00,
2013-03-26 21:22:00,35.8,20.8,29.87,WNW,292,2.9,7.2,54,0.00,,,0.02,WUHU21623XXSP,2013-03-27 01:22:00,
2013-03-26 21:27:00,35.8,20.8,29.87,WNW,292,4.5,7.2,54,0.00,,,0.02,WUHU21623XXSP,2013-03-27 01:27:00,
2013-03-26 21:32:00,35.4,20.8,29.87,WNW,292,2.9,7.2,55,0.00,,,0.02,WUHU21623XXSP,2013-03-27 01:32:00,
2013-03-26 21:37:00,35.4,20.8,29.88,WNW,292,4.3,6.3,55,0.00,,,0.02,WUHU21623XXSP,2013-03-27 01:37:00,
2013-03-26 21:42:00,35.4,20.8,29.88,WNW,292,1.3,6.3,55,0.00,,,0.02,WUHU21623XXSP,2013-03-27 01:42:00,
2013-03-26 21:47:00,35.2,20.7,29.88,WNW,292,0.0,4.9,55,0.00,,,0.02,WUHU21623XXSP,2013-03-27 01:47:00,
2013-03-26 21:52:00,35.2,21.1,29.88,WNW,292,1.3,4.5,56,0.00,,,0.02,WUHU21623XXSP,2013-03-27 01:52:00,
2013-03-26 21:57:00,35.1,20.9,29.88,WNW,292,1.6,4.5,56,0.00,,,0.02,WUHU21623XXSP,2013-03-27 01:57:00,
2013-03-26 22:02:00,34.9,20.7,29.88,WNW,292,1.6,3.6,56,0.00,,,0.02,WUHU21623XXSP,2013-03-27 02:02:00,
2013-03-26 22:07:00,34.7,20.6,29.88,WNW,292,1.8,3.6,56,0.00,,,0.02,WUHU21623XXSP,2013-03-27 02:07:00,
2013-03-26 22:12:00,34.3,20.6,29.88,WNW,292,3.8,4.7,57,0.00,,,0.02,WUHU21623XXSP,2013-03-27 02:12:00,
2013-03-26 22:17:00,34.3,20.6,29.88,WNW,292,0.0,6.3,57,0.00,,,0.02,WUHU21623XXSP,2013-03-27 02:17:00,
2013-03-26 22:22:00,34.3,20.6,29.88,West,270,2.5,6.3,57,0.00,,,0.02,WUHU21623XXSP,2013-03-27 02:22:00,
2013-03-26 22:28:00,34.3,21.1,29.88,WNW,292,0.0,3.8,58,0.00,,,0.02,WUHU21623XXSP,2013-03-27 02:28:00,
2013-03-26 22:33:00,34.3,21.1,29.88,WNW,292,2.9,4.0,58,0.00,,,0.02,WUHU21623XXSP,2013-03-27 02:33:00,
2013-03-26 22:38:00,34.3,21.1,29.88,West,270,0.0,5.1,58,0.00,,,0.02,WUHU21623XXSP,2013-03-27 02:38:00,
2013-03-26 22:43:00,34.3,21.1,29.87,WNW,292,0.0,6.3,58,0.00,,,0.02,WUHU21623XXSP,2013-03-27 02:43:00,
2013-03-26 22:48:00,34.3,21.5,29.88,West,270,0.0,6.3,59,0.00,,,0.02,WUHU21623XXSP,2013-03-27 02:48:00,
2013-03-26 22:53:00,34.3,21.5,29.88,WNW,292,5.1,6.7,59,0.00,,,0.02,WUHU21623XXSP,2013-03-27 02:53:00,
2013-03-26 22:58:00,34.3,21.1,29.88,WNW,292,3.4,6.7,58,0.00,,,0.02,WUHU21623XXSP,2013-03-27 02:58:00,
2013-03-26 23:03:00,34.3,21.1,29.88,West,270,1.6,6.0,58,0.00,,,0.02,WUHU21623XXSP,2013-03-27 03:03:00,
2013-03-26 23:08:00,34.3,21.1,29.88,WNW,292,1.8,7.6,58,0.00,,,0.02,WUHU21623XXSP,2013-03-27 03:08:00,
2013-03-26 23:13:00,34.3,21.1,29.88,West,270,2.5,7.6,58,0.00,,,0.02,WUHU21623XXSP,2013-03-27 03:13:00,
2013-03-26 23:18:00,34.2,20.9,29.88,West,270,4.3,7.6,58,0.00,,,0.02,WUHU21623XXSP,2013-03-27 03:18:00,
2013-03-26 23:23:00,34.0,21.1,29.88,WNW,292,2.7,6.9,59,0.00,,,0.02,WUHU21623XXSP,2013-03-27 03:23:00,
2013-03-26 23:28:00,34.3,21.1,29.88,West,270,0.0,6.0,58,0.00,,,0.02,WUHU21623XXSP,2013-03-27 03:28:00,
2013-03-26 23:33:00,34.2,20.9,29.88,West,270,1.3,5.6,58,0.00,,,0.02,WUHU21623XXSP,2013-03-27 03:33:00,
2013-03-26 23:38:00,34.0,20.7,29.89,West,270,3.8,5.6,58,0.00,,,0.02,WUHU21623XXSP,2013-03-27 03:38:00,
2013-03-26 23:43:00,33.8,20.5,29.89,WNW,292,0.0,5.1,58,0.00,,,0.02,WUHU21623XXSP,2013-03-27 03:43:00,
2013-03-26 23:48:00,34.0,20.7,29.88,WNW,292,1.6,4.5,58,0.00,,,0.02,WUHU21623XXSP,2013-03-27 03:48:00,
2013-03-26 23:53:00,33.6,20.4,29.88,WNW,292,0.0,4.0,58,0.00,,,0.02,WUHU21623XXSP,2013-03-27 03:53:00,
2013-03-26 23:58:00,33.6,20.8,29.88,WNW,292,0.0,2.2,59,0.00,,,0.02,WUHU21623XXSP,2013-03-27 03:58:00,